Wind_Speed
10 9 8 7 7 7 8 9 10 11 11 10 10 10 10 11 11 12 12 13 13 13 13 13 13 13 14 14 14 15 15 15 16 16 16 16 16 16 16 16 16 16 16 16 16 16 16 16 17
9 9 9 8 8 7 7 7 8 9 9 9 10 10 10 11 12 13 13 13 14 14 13 13 13 14 14 14 15 15 15 16 16 16 16 16 16 16 16 16 16 16 15 15 15 15 15 15 16
8 8 8 8 7 6 6 6 6 6 7 7 8 9 10 11 12 13 13 14 14 14 13 13 14 14 15 15 15 15 15 15 15 15 15 15 15 15 15 15 15 15 15 15 15 15 15 15 15
6 7 6 6 5 5 5 5 5 5 5 5 5 7 9 10 11 12 13 14 14 14 14 14 14 14 15 15 15 15 15 15 15 15 15 15 15 15 15 15 15 15 15 14 14 14 14 14 14
5 5 4 4 3 3 3 3 4 4 4 4 5 7 8 9 11 12 13 13 14 14 14 14 15 15 15 15 15 15 16 16 15 15 15 15 15 15 15 15 15 15 14 14 14 14 14 14 14
4 3 3 2 2 1 1 2 3 4 5 6 7 8 9 10 11 13 14 14 14 15 15 16 16 16 16 16 16 16 16 16 16 16 16 15 16 16 15 15 15 15 15 15 15 15 15 15 15
2 2 1 1 1 0 1 2 3 4 5 7 8 9 10 11 13 14 15 15 16 16 16 17 17 17 17 17 17 17 17 17 17 17 17 17 17 17 17 17 17 17 17 16 17 17 17 17 17
1 0 1 1 2 1 2 3 4 6 7 8 9 11 12 13 14 15 16 16 17 17 18 18 19 19 19 19 19 19 19 19 19 19 19 19 19 19 19 19 19 19 19 19 19 19 19 19 20
3 2 2 3 3 3 3 4 5 6 8 9 10 12 14 15 15 16 16 17 18 19 19 20 20 20 20 21 21 21 21 21 21 21 22 22 22 22 22 22 22 22 22 22 22 23 23 23 23
7 6 5 5 6 6 6 6 7 8 9 10 11 13 14 15 16 17 17 18 19 20 21 21 22 22 22 23 23 23 23 24 24 24 24 25 25 26 26 26 26 26 26 26 26 26 26 27 27
11 10 9 9 9 10 10 10 10 11 11 11 13 14 15 16 17 17 18 18 19 20 21 22 22 23 23 24 24 25 25 26 26 27 27 28 28 29 29 29 30 30 30 30 30 30 30 31 31
15 14 13 13 13 13 13 13 13 13 13 14 15 16 17 17 17 17 18 18 19 20 21 22 23 23 24 25 25 26 27 27 28 29 29 30 31 32 32 33 33 34 34 35 35 35 35 35 35
18 18 17 16 16 16 16 16 16 16 16 17 17 18 18 18 18 18 18 19 19 20 21 21 22 23 25 26 27 27 28 29 29 30 31 31 32 33 34 34 35 36 37 38 38 39 39 40 40
20 20 20 19 19 19 19 19 18 18 18 19 19 19 19 19 18 18 19 19 19 20 20 21 22 23 24 25 26 27 28 29 30 30 31 32 33 34 35 35 36 37 38 39 40 41 42 43 44
21 21 21 21 21 21 21 21 20 20 20 20 20 20 19 19 19 19 19 19 19 20 20 21 21 22 23 24 25 26 27 28 30 31 32 32 33 34 35 36 37 38 39 40 41 42 43 44 45
21 22 22 22 21 22 22 22 20 20 21 21 20 20 20 20 19 19 19 19 19 20 20 21 22 22 23 24 24 26 27 28 29 30 31 33 33 34 35 36 37 38 39 40 41 42 44 45 46
22 22 23 22 21 21 22 23 21 20 21 21 20 20 19 19 19 18 18 19 19 20 21 22 23 23 24 25 26 27 28 29 30 31 32 32 33 33 34 35 36 37 38 39 41 42 43 44 46
21 22 22 22 21 21 22 22 21 20 20 20 20 19 19 19 19 19 19 20 21 22 23 24 24 25 26 27 28 29 30 31 31 32 33 33 33 34 34 35 36 37 38 39 41 42 43 44 46
21 22 22 22 21 21 21 21 21 20 19 19 19 19 19 19 19 19 20 21 22 23 24 25 26 27 28 29 30 31 31 32 33 33 34 34 34 35 35 36 37 38 38 40 41 42 43 44 46
22 22 22 22 21 20 20 20 20 19 19 18 18 18 19 19 20 21 22 23 24 26 27 28 29 29 30 31 31 32 32 32 32 32 32 33 33 34 34 35 36 37 38 39 41 42 44 45 48
22 22 21 21 20 19 19 19 19 19 19 18 18 19 19 20 21 22 24 25 26 28 29 30 30 30 31 31 31 31 30 30 30 30 31 31 32 33 34 35 36 37 39 41 43 46 48 50 52
22 21 21 21 20 18 18 18 19 19 19 19 19 19 20 21 23 24 26 27 28 30 30 31 30 30 31 31 30 29 29 29 29 29 30 30 31 33 34 36 38 40 42 45 47 49 52 54 55
22 21 21 20 19 18 18 19 17 19 19 19 20 20 21 23 25 26 28 29 30 31 31 31 31 30 30 30 29 28 28 28 29 30 31 32 34 36 38 40 42 44 46 49 52 54 57 59 61
21 21 21 20 19 18 18 19 18 18 19 20 21 22 23 24 26 28 29 30 31 32 31 31 30 30 29 29 28 29 29 30 31 32 34 35 37 40 42 44 47 49 52 54 57 59 62 65 67
21 21 20 20 19 19 19 19 19 19 20 21 22 23 24 26 28 29 30 31 32 31 31 30 30 29 29 29 29 30 31 32 34 36 37 40 42 45 47 50 52 55 58 60 63 65 68 70 73
21 21 21 21 20 19 19 20 20 20 21 22 24 25 26 28 29 31 31 32 31 31 31 30 30 29 30 31 32 33 34 36 37 40 42 44 47 50 52 55 58 60 63 66 68 71 73 76 78
21 21 21 22 21 21 20 20 20 21 23 24 25 26 28 29 31 32 32 32 32 32 32 31 31 31 32 34 35 36 37 39 42 44 46 49 52 54 57 60 62 65 68 71 74 76 78 80 82
22 21 21 22 23 22 21 21 22 23 25 26 27 28 29 31 32 33 34 34 34 34 33 33 33 33 35 36 37 39 41 43 46 48 51 54 56 59 62 65 67 70 73 76 78 80 82 84 86
22 22 23 24 24 24 24 22 23 25 26 28 29 30 31 33 34 35 36 36 35 35 35 35 35 36 37 39 41 43 45 48 50 53 56 58 61 64 67 69 72 75 78 80 82 84 86 88 89
23 23 24 25 25 26 26 24 25 27 29 30 31 32 34 35 37 37 38 37 36 36 37 37 37 38 39 41 44 46 49 51 54 57 60 63 66 69 72 74 77 80 82 84 86 88 89 91 92
Wind_Direction
91 97 105 121 146 172 192 207 214 218 225 230 234 238 243 245 247 252 253 255 258 260 261 262 264 266 269 271 272 273 273 273 273 273 272 271 268 265 264 262 261 260 259 259 259 259 260 260 261
93 95 100 109 125 144 161 179 193 206 217 226 234 239 243 247 252 254 254 256 258 259 260 262 265 267 270 271 273 273 274 274 275 274 273 271 268 266 263 262 261 261 261 261 261 261 261 261 261
96 96 102 106 117 131 144 156 171 183 199 213 227 238 244 250 254 256 257 259 261 261 262 264 267 269 271 272 274 274 274 275 276 275 272 270 268 266 264 263 263 263 263 263 263 263 263 264 264
96 100 103 107 116 130 143 153 158 165 178 199 222 238 247 252 255 259 261 262 263 264 266 268 271 272 273 274 274 273 274 275 274 273 271 269 267 266 265 264 264 264 264 264 264 265 266 268 269
97 98 101 106 113 127 151 166 179 191 200 214 232 245 252 256 259 261 262 263 264 266 269 271 272 273 274 274 273 273 274 274 273 271 268 266 265 265 265 265 265 264 265 265 266 267 268 269 271
99 96 100 100 109 120 155 194 208 221 231 238 246 252 253 256 260 262 263 264 265 267 269 271 271 272 272 272 271 271 272 272 271 268 266 265 265 265 264 264 265 265 266 266 267 267 268 269 271
102 86 79 58 40 11 287 267 251 251 251 253 258 261 259 257 259 261 263 265 266 267 268 269 270 270 270 269 269 269 269 269 268 266 265 264 265 264 263 263 264 265 265 266 268 268 269 270 271
178 107 17 354 349 331 298 284 271 266 263 262 263 265 265 262 260 261 263 265 266 266 266 267 269 270 270 269 268 268 269 269 267 266 265 265 264 264 263 264 264 264 266 267 268 269 270 271 272
242 260 282 299 304 302 294 288 278 273 270 268 264 263 264 266 266 266 266 266 266 267 267 268 268 269 269 270 269 269 269 269 268 267 266 266 265 265 265 265 265 266 266 267 269 269 270 271 272
254 261 270 279 287 288 287 285 282 277 275 272 269 267 269 270 270 270 270 270 270 270 270 270 271 271 271 271 271 271 271 270 270 269 268 268 267 267 267 267 267 268 268 268 270 271 271 272 273
257 263 268 272 278 282 284 283 282 282 280 275 274 274 272 273 274 274 274 274 273 273 273 273 273 273 273 273 273 272 272 271 271 271 271 270 269 269 269 269 269 270 270 270 271 272 273 274 274
261 265 268 271 275 279 281 283 283 283 281 279 277 276 276 276 277 278 279 278 277 277 276 275 274 274 274 274 274 274 274 273 273 273 273 272 272 271 271 271 272 272 272 272 273 273 274 274 275
263 266 268 271 274 276 278 279 281 281 280 279 278 278 279 279 280 280 280 280 280 280 279 278 277 277 277 277 277 277 276 276 276 275 275 274 274 274 274 274 274 274 274 274 275 275 275 275 275
265 267 268 270 273 275 276 277 278 279 278 279 279 280 279 279 280 280 281 281 282 282 282 282 281 281 280 280 280 280 280 279 278 277 277 276 276 275 275 275 275 275 275 276 276 276 276 276 276
268 270 271 272 273 275 276 276 277 277 277 277 278 278 278 279 280 281 282 283 284 285 286 286 286 285 285 284 284 283 283 282 281 281 280 280 279 279 278 278 278 278 278 278 278 277 277 276 276
271 272 274 275 276 275 276 276 276 276 276 276 276 277 277 279 280 282 284 285 286 288 288 289 290 290 289 289 288 287 286 286 285 284 283 282 282 281 281 281 280 280 280 280 279 278 278 277 277
272 274 276 277 277 276 275 275 275 273 273 274 275 276 277 279 282 285 287 289 291 291 292 292 293 293 293 292 291 290 289 288 288 287 286 285 285 284 284 283 282 281 281 280 280 279 279 278 278
272 275 278 279 278 276 275 275 275 272 272 273 275 276 278 281 284 288 291 293 294 295 295 295 295 295 294 293 292 292 291 290 289 288 287 287 286 285 284 284 283 283 283 283 282 282 281 280 280
272 275 278 280 279 276 275 274 275 273 272 273 275 278 281 284 288 291 294 295 296 296 297 297 296 295 295 293 293 292 291 290 290 289 288 287 286 286 286 285 285 285 285 284 284 284 284 283 282
272 275 277 278 277 275 273 273 273 273 273 275 277 280 284 288 291 293 295 296 296 297 297 297 297 296 295 294 293 292 291 291 290 289 288 287 287 286 286 287 287 287 287 287 286 286 286 286 285
272 275 276 277 274 272 271 270 272 273 275 277 279 282 286 289 292 294 295 296 296 297 297 297 297 296 296 295 294 293 292 291 290 289 288 288 288 289 289 289 289 289 289 289 289 290 290 289 289
271 273 274 274 272 268 268 267 270 273 276 278 280 283 286 289 292 294 295 296 296 297 298 297 296 296 296 295 294 293 292 292 291 290 290 290 290 291 291 292 292 292 292 292 292 292 292 291 291
269 270 270 270 268 266 265 266 267 272 274 276 279 283 287 290 292 294 296 296 296 297 297 297 296 295 293 292 291 291 291 291 291 292 292 292 292 293 294 294 294 294 294 294 293 293 292 292 291
267 268 267 266 266 264 264 267 269 270 272 275 279 284 287 291 293 295 295 296 296 297 297 297 295 293 290 289 289 290 290 290 291 292 293 293 294 295 295 295 295 295 295 294 294 294 293 293 292
263 264 264 264 264 266 266 267 270 270 272 276 280 285 289 292 294 295 296 297 297 297 297 295 293 290 288 287 288 289 289 289 290 291 292 293 294 295 296 296 296 296 296 296 295 295 294 294 293
260 261 264 267 267 267 267 269 272 272 274 277 282 287 290 293 295 296 297 297 297 296 295 294 292 289 287 286 287 287 287 288 290 291 293 294 295 296 296 297 297 297 297 297 296 296 295 295 294
258 259 263 268 269 270 270 272 272 273 276 280 284 287 291 294 296 297 297 297 296 295 294 292 290 288 287 287 287 287 288 290 291 293 294 294 295 296 297 297 298 298 298 298 297 297 296 295 295
257 261 265 268 272 272 272 274 275 274 277 281 285 288 291 295 297 297 297 296 295 295 294 291 289 288 287 287 288 289 290 292 293 294 295 296 297 298 298 299 299 299 299 299 299 298 298 297 296
258 262 266 269 273 276 277 277 277 277 279 281 284 288 292 295 297 297 296 296 294 294 292 290 289 288 288 288 289 291 292 293 295 296 297 298 299 300 301 301 301 301 301 301 301 300 299 299 298
260 264 268 272 275 278 280 283 281 279 280 282 285 288 292 295 297 297 295 295 293 292 291 290 289 289 290 290 292 293 294 296 297 298 300 301 302 302 303 303 303 303 303 303 302 301 301 300 299
Height
5879 5878 5878 5879 5881 5881 5881 5882 5882 5883 5884 5885 5886 5886 5887 5888 5889 5891 5889 5887 5887 5887 5887 5887 5887 5887 5887 5886 5886 5886 5885 5885 5884 5884 5883 5883 5882 5882 5881 5881 5880 5880 5879 5879 5878 5878 5877 5877 5876
5880 5880 5880 5881 5881 5881 5882 5881 5882 5882 5883 5884 5884 5885 5886 5886 5886 5887 5886 5886 5886 5886 5885 5885 5885 5885 5885 5884 5884 5884 5883 5883 5882 5881 5881 5880 5880 5880 5879 5879 5878 5877 5877 5876 5876 5875 5875 5874 5874
5881 5881 5882 5881 5881 5882 5882 5882 5881 5882 5882 5883 5884 5884 5885 5885 5885 5885 5885 5885 5884 5884 5884 5884 5883 5883 5883 5882 5882 5881 5881 5880 5880 5879 5879 5878 5878 5877 5877 5876 5876 5875 5875 5874 5874 5873 5872 5872 5872
5882 5882 5883 5883 5882 5882 5882 5882 5881 5882 5882 5882 5883 5883 5883 5884 5884 5884 5883 5883 5883 5882 5882 5882 5881 5881 5881 5880 5879 5879 5878 5878 5877 5877 5876 5876 5876 5875 5875 5874 5873 5873 5872 5872 5871 5871 5870 5870 5869
5883 5883 5883 5883 5882 5882 5882 5881 5881 5881 5881 5882 5882 5882 5882 5883 5882 5882 5882 5881 5881 5881 5880 5880 5879 5879 5878 5878 5877 5876 5876 5875 5875 5874 5874 5874 5873 5873 5872 5872 5871 5870 5870 5869 5869 5868 5868 5867 5867
5884 5883 5883 5883 5882 5882 5882 5881 5881 5881 5881 5881 5881 5881 5881 5881 5881 5880 5880 5880 5879 5879 5878 5878 5877 5876 5876 5875 5874 5874 5873 5872 5872 5872 5871 5871 5871 5870 5870 5869 5868 5868 5867 5867 5866 5866 5865 5865 5864
5884 5884 5883 5883 5882 5882 5881 5881 5880 5880 5880 5880 5880 5879 5879 5879 5879 5878 5878 5877 5877 5876 5876 5875 5874 5874 5873 5872 5872 5871 5870 5869 5869 5869 5868 5868 5868 5867 5867 5866 5866 5865 5864 5864 5863 5863 5862 5861 5861
5883 5884 5883 5882 5882 5881 5881 5880 5880 5879 5879 5879 5878 5878 5877 5877 5876 5876 5875 5875 5874 5874 5873 5872 5871 5871 5870 5869 5868 5868 5867 5866 5866 5865 5865 5865 5864 5864 5863 5863 5862 5862 5861 5860 5860 5859 5858 5858 5857
5882 5883 5882 5882 5881 5881 5880 5879 5878 5878 5877 5876 5876 5875 5875 5874 5873 5873 5873 5872 5872 5871 5870 5869 5868 5867 5867 5866 5865 5864 5863 5863 5862 5862 5861 5861 5860 5860 5859 5859 5858 5858 5857 5856 5855 5855 5854 5853 5853
5880 5881 5881 5880 5880 5879 5878 5877 5876 5876 5875 5874 5874 5873 5872 5871 5871 5870 5870 5869 5868 5868 5867 5866 5865 5864 5863 5862 5861 5860 5859 5859 5858 5857 5857 5856 5856 5855 5855 5854 5854 5853 5852 5851 5851 5850 5849 5848 5848
5877 5878 5878 5878 5877 5876 5876 5875 5874 5873 5872 5872 5871 5870 5869 5868 5868 5867 5866 5866 5865 5864 5863 5862 5861 5860 5859 5858 5857 5856 5855 5854 5853 5853 5852 5851 5851 5850 5849 5849 5848 5847 5846 5846 5845 5844 5843 5842 5841
5874 5874 5875 5875 5874 5874 5873 5872 5871 5870 5870 5869 5867 5866 5866 5865 5864 5864 5863 5862 5861 5860 5859 5858 5857 5856 5855 5853 5852 5851 5850 5849 5848 5847 5846 5845 5845 5844 5843 5842 5842 5841 5840 5839 5838 5837 5837 5836 5834
5870 5870 5871 5871 5871 5870 5869 5869 5868 5867 5866 5865 5864 5863 5862 5861 5861 5860 5859 5858 5857 5856 5855 5854 5853 5852 5850 5849 5847 5846 5845 5844 5843 5841 5840 5839 5838 5837 5836 5835 5834 5833 5832 5831 5831 5830 5829 5828 5827
5866 5866 5866 5866 5866 5866 5865 5865 5864 5863 5862 5861 5860 5859 5858 5857 5857 5856 5855 5854 5853 5852 5851 5850 5849 5847 5846 5844 5843 5841 5840 5838 5837 5835 5834 5833 5831 5830 5829 5828 5827 5825 5824 5823 5822 5821 5820 5819 5817
5861 5861 5861 5861 5861 5861 5861 5860 5860 5858 5857 5856 5855 5854 5854 5853 5852 5851 5850 5850 5848 5847 5846 5845 5844 5842 5841 5839 5838 5836 5834 5832 5831 5829 5828 5826 5825 5823 5822 5820 5819 5817 5816 5814 5813 5811 5810 5808 5807
5857 5856 5856 5857 5856 5855 5857 5855 5855 5853 5852 5851 5851 5850 5849 5849 5848 5847 5846 5845 5844 5843 5841 5840 5839 5837 5836 5834 5832 5830 5828 5827 5825 5823 5821 5819 5818 5816 5814 5813 5811 5809 5807 5805 5803 5801 5800 5798 5796
5852 5851 5851 5851 5851 5850 5850 5849 5849 5848 5847 5847 5846 5845 5845 5844 5843 5842 5841 5840 5839 5838 5837 5835 5833 5832 5830 5828 5826 5824 5822 5820 5818 5816 5814 5812 5810 5808 5806 5804 5802 5800 5798 5795 5793 5791 5789 5787 5785
5847 5847 5846 5845 5846 5845 5844 5843 5843 5843 5842 5842 5841 5841 5840 5839 5839 5838 5837 5836 5834 5833 5831 5830 5828 5826 5824 5822 5820 5818 5816 5814 5811 5809 5807 5805 5803 5800 5798 5796 5793 5791 5789 5786 5783 5781 5778 5776 5773
5842 5842 5841 5841 5840 5840 5839 5838 5838 5837 5837 5837 5836 5836 5835 5835 5834 5833 5832 5831 5829 5828 5826 5824 5822 5820 5818 5816 5813 5811 5809 5806 5804 5801 5799 5796 5794 5792 5789 5787 5784 5782 5779 5776 5773 5770 5768 5765 5762
5837 5837 5836 5836 5835 5835 5834 5833 5832 5832 5832 5832 5831 5831 5830 5830 5829 5828 5827 5826 5824 5822 5820 5818 5816 5814 5811 5808 5806 5803 5801 5798 5796 5793 5790 5788 5785 5783 5780 5778 5775 5772 5770 5766 5763 5760 5757 5754 5750
5832 5832 5831 5831 5830 5830 5829 5829 5828 5827 5827 5827 5827 5826 5826 5825 5824 5823 5822 5820 5818 5816 5814 5812 5809 5806 5804 5801 5798 5795 5793 5790 5788 5785 5782 5780 5777 5774 5772 5769 5766 5763 5760 5757 5753 5749 5746 5742 5738
5827 5827 5826 5826 5826 5826 5826 5825 5824 5823 5823 5822 5822 5821 5821 5820 5819 5818 5816 5814 5812 5810 5807 5805 5802 5799 5796 5794 5791 5788 5785 5783 5780 5777 5775 5772 5769 5766 5763 5760 5757 5754 5750 5746 5742 5737 5733 5729 5725
5822 5821 5822 5821 5821 5821 5821 5820 5821 5819 5818 5818 5817 5817 5816 5815 5813 5812 5810 5807 5805 5803 5800 5798 5795 5792 5789 5786 5784 5781 5778 5776 5773 5770 5767 5764 5761 5758 5755 5751 5747 5743 5739 5735 5730 5725 5720 5715 5710
5816 5817 5817 5816 5816 5817 5817 5816 5816 5815 5814 5813 5813 5812 5810 5809 5807 5805 5803 5801 5798 5796 5793 5790 5788 5785 5782 5779 5777 5774 5771 5769 5766 5763 5759 5756 5752 5749 5745 5741 5737 5732 5728 5723 5717 5712 5706 5700 5694
5811 5812 5812 5812 5812 5813 5812 5811 5812 5811 5809 5808 5807 5806 5805 5803 5801 5799 5796 5794 5791 5788 5786 5783 5780 5777 5775 5772 5770 5767 5764 5761 5758 5755 5751 5747 5743 5739 5735 5730 5725 5720 5714 5709 5703 5697 5690 5683 5676
5805 5807 5808 5808 5808 5807 5807 5807 5808 5805 5804 5803 5802 5800 5798 5796 5794 5792 5789 5787 5784 5781 5778 5776 5773 5770 5767 5765 5762 5759 5756 5753 5749 5746 5742 5737 5733 5728 5723 5718 5712 5706 5700 5693 5686 5680 5672 5665 5657
5800 5801 5801 5802 5801 5802 5802 5802 5802 5800 5798 5797 5795 5794 5792 5789 5787 5784 5782 5779 5776 5773 5771 5768 5765 5762 5759 5756 5753 5750 5747 5743 5740 5735 5731 5726 5721 5716 5710 5704 5698 5691 5684 5676 5669 5661 5653 5644 5636
5795 5795 5796 5795 5795 5796 5797 5797 5796 5794 5792 5791 5789 5787 5785 5782 5780 5777 5774 5771 5768 5765 5763 5759 5756 5753 5750 5747 5744 5740 5737 5733 5728 5724 5719 5714 5708 5702 5696 5689 5682 5674 5666 5657 5649 5640 5631 5622 5613
5789 5790 5789 5789 5790 5790 5790 5793 5790 5787 5785 5783 5781 5779 5777 5775 5772 5769 5766 5763 5760 5757 5754 5751 5747 5744 5741 5737 5734 5730 5726 5721 5716 5711 5705 5699 5693 5686 5679 5671 5664 5655 5646 5636 5627 5618 5608 5598 5588
5783 5784 5784 5784 5784 5783 5783 5787 5782 5780 5777 5775 5774 5772 5769 5767 5764 5760 5757 5754 5751 5748 5745 5741 5738 5734 5731 5727 5723 5718 5713 5708 5703 5697 5691 5684 5677 5669 5661 5653 5644 5635 5625 5614 5604 5594 5583 5572 5561